National Weather Service Raw Text Product

Displaying AFOS PIL: RWRIA Received: 2018-12-06 05:00 UTC


070 
ASUS43 KDMX 060506
RWRIA 

WEATHER ROUNDUP FOR IOWA
NATIONAL WEATHER SERVICE DES MOINES IA
1100 PM CST WED DEC 05 2018

NOTE: "FAIR" INDICATES FEW OR NO CLOUDS BELOW 12,000 FEET WITH NO
SIGNIFICANT WEATHER AND/OR OBSTRUCTIONS TO VISIBILITY.

* - THESE STATIONS ARE NOT NWS STATIONS...THUS NOT UNDER NWS
QUALITY CONTROL.  THEY ALSO DO NOT REPORT WEATHER SUCH 
AS PRECIPITATION OR FOG.  

IAZ001>003-012>014-020>022-031>034-043>046-060600-
   NORTHWEST IOWA
  
CITY           SKY/WX    TMP DP  RH WIND       PRES   REMARKS
CARROLL *      CLOUDY    25  21  86 N13       30.15R WCI  13          
CHEROKEE *     CLOUDY    23  20  89 N5        30.18R WCI  17          
DENISON *      CLOUDY    25  19  80 CALM      30.17R                  
LE MARS *      CLOUDY    25  21  86 N13       30.19R WCI  13          
ORANGE CITY *  CLOUDY    25  21  86 N10G16    30.18R WCI  15          
SHELDON *      CLOUDY    21  19  93 N16       30.15R WCI   7          
SIOUX CITY     CLOUDY    25  19  78 N10       30.19R WCI  15          
SPENCER        CLOUDY    22  16  78 N16       30.17R WCI   8          
STORM LAKE *   CLOUDY    21  21 100 N10       30.15R WCI  10          
$$
 
IAZ055>058-069>071-079>083-090>094-060600-
   SOUTHWEST IOWA
  
CITY           SKY/WX    TMP DP  RH WIND       PRES   REMARKS
ATLANTIC *     CLOUDY    27  23  86 NW3       30.15S                  
AUDUBON *      CLOUDY    25  19  80 CALM      30.15R                  
CLARINDA *     PTCLDY    25  23  93 CALM      30.17S                  
COUNCIL BLFS * CLOUDY    27  23  86 NW8       30.15S WCI  18          
CRESTON *      CLOUDY    28  25  86 NW13      30.14R WCI  18          
HARLAN  *        N/A    N/A N/A N/A MISG        N/A                   
LAMONI         CLOUDY    30  26  85 W5        30.11R WCI  25          
RED OAK *      CLOUDY    27  23  86 N8        30.15F WCI  18          
SHENANDOAH *   CLOUDY    28  25  86 VRB3      30.15S                  
$$
 
IAZ047>049-059>061-072>074-084-060600-
   CENTRAL IOWA
  
CITY           SKY/WX    TMP DP  RH WIND       PRES   REMARKS
AMES           CLOUDY    27  20  75 NW9       30.14R WCI  18          
ANKENY *       PTCLDY    28  21  74 NW10G16   30.15R WCI  19          
BOONE *        CLOUDY    25  21  86 NW12      30.13R WCI  14          
CHARITON *     CLOUDY    30  27  86 NW6       30.12R WCI  24          
DES MOINES     CLOUDY    30  21  69 NW13      30.15R WCI  20          
GRINNELL*      CLOUDY    30  24  78 NW13      30.12R WCI  20          
KNOXVILLE *    CLOUDY    30  28  93 NW9       30.12S WCI  22          
MARSHALLTOWN   CLOUDY    26  22  84 NW10      30.12R WCI  16          
NEWTON *       PTCLDY    30  23  74 NW9       30.13R WCI  22          
PELLA *        PTCLDY    32  24  72 NW8       30.14R WCI  25          
PERRY *        FAIR      26  22  86 CALM      30.14R                  
$$
 
IAZ004>006-015-016-023>025-035-036-060600-
   NORTH CENTRAL IOWA
  
CITY           SKY/WX    TMP DP  RH WIND       PRES   REMARKS
ALGONA *       CLOUDY    23  19  86 N16G24    30.13R WCI  10          
CLARION *      CLOUDY    25  21  86 N12       30.14R WCI  14          
ESTHERVILLE    CLOUDY    20  16  84 N18       30.15R WCI   5          
FORT DODGE *   CLOUDY    23  20  88 N8G16     30.15R WCI  14          
MASON CITY     CLOUDY    24  21  88 N22       30.12R WCI   9          
FOREST CITY *  CLOUDY    25  21  86 N13       30.12R WCI  13          
WEBSTER CITY * CLOUDY    23  19  86 N14       30.12R WCI  11          
IOWA FALLS *   FAIR      25  22  87 NW10      30.13R WCI  15          
$$

IAZ007>011-017>019-026>030-037>042-050>054-066-060600-
   NORTHEAST IOWA
  
CITY           SKY/WX    TMP DP  RH WIND       PRES   REMARKS
CEDAR RAPIDS   FAIR      29  24  82 W8        30.10R WCI  21          
CHARLES CITY * FAIR      23  19  86 NW10      30.10R WCI  12          
CLINTON *      FAIR      30  27  88 SW10      30.09R WCI  21          
DECORAH *      FAIR      23  23 100 NW9G15    30.05R WCI  13          
DUBUQUE        FAIR      29  24  82 SW14      30.04R WCI  18          
MONTICELLO *   FAIR      30  25  80 W9        30.08R WCI  22          
WATERLOO       FAIR      26  21  81 NW8       30.10R WCI  18          
$$
 
IAZ064-065-067-068-078-060600-
   EAST CENTRAL IOWA
  
CITY           SKY/WX    TMP DP  RH WIND       PRES   REMARKS
DAVENPORT      FAIR      32  26  78 W8        30.11R WCI  25          
IOWA CITY      FAIR      31  25  78 W8        30.13R WCI  23          
MT. PLEASANT * MOCLDY    32  30  93 SW7       30.12S WCI  26          
MUSCATINE *    FAIR      36  27  69 SW10G18   30.12R WCI  28          
QUAD CITIES    FAIR      33  27  78 W9        30.10  WCI  25          
$$
 
IAZ062-063-075>077-085>089-095>099-060600-
   SOUTHEAST IOWA
  
CITY           SKY/WX    TMP DP  RH WIND       PRES   REMARKS
BURLINGTON     PTCLDY    34  27  75 SW8       30.12S WCI  27          
FAIRFIELD *    PTCLDY    32  25  74 W5        30.10S WCI  27          
FORT MADISON * PTCLDY    36  28  75 SW8       30.13S WCI  29          
KEOKUK *       CLOUDY    34  28  80 SW6       30.13S WCI  29          
OSKALOOSA *    FAIR      29  26  86 NW6       30.13R WCI  23          
CENTERVILLE *  FAIR      32  28  86 CALM      30.12S                  
OTTUMWA        CLEAR     30  24  78 NW8       30.13R WCI  22          
WASHINGTON *   MOCLDY    32  30  93 NW12      30.13R WCI  23          
$$

ABBREVIATIONS USED IN REMARKS
   TC - TEMPERATURES IN CELSIUS
  WCI - WIND CHILL INDEX
   HX - HEAT INDEX
  VSB - VISIBILITY  
$$

  

899 
ASUS43 KDMX 060501
RWRIA 

WEATHER ROUNDUP FOR IOWA
NATIONAL WEATHER SERVICE DES MOINES IA
1100 PM CST WED DEC 05 2018

NOTE: "FAIR" INDICATES FEW OR NO CLOUDS BELOW 12,000 FEET WITH NO
SIGNIFICANT WEATHER AND/OR OBSTRUCTIONS TO VISIBILITY.

* - THESE STATIONS ARE NOT NWS STATIONS...THUS NOT UNDER NWS
QUALITY CONTROL.  THEY ALSO DO NOT REPORT WEATHER SUCH 
AS PRECIPITATION OR FOG.  

IAZ001>003-012>014-020>022-031>034-043>046-060600-
   NORTHWEST IOWA
  
CITY           SKY/WX    TMP DP  RH WIND       PRES   REMARKS
CARROLL *      CLOUDY    25  21  86 N13       30.15R WCI  13          
CHEROKEE *     CLOUDY    23  20  89 N5        30.18R WCI  17          
DENISON *      CLOUDY    25  19  80 CALM      30.17R                  
LE MARS *      CLOUDY    25  21  86 N13       30.19R WCI  13          
ORANGE CITY *  CLOUDY    25  21  86 N10G16    30.18R WCI  15          
SHELDON *      CLOUDY    21  19  93 N16       30.15R WCI   7          
SIOUX CITY     CLOUDY    25  19  78 N10       30.19R WCI  15          
SPENCER        CLOUDY    22  16  78 N16       30.17R WCI   8          
STORM LAKE *   CLOUDY    21  21 100 N10       30.15R WCI  10          
$$
 
IAZ055>058-069>071-079>083-090>094-060600-
   SOUTHWEST IOWA
  
CITY           SKY/WX    TMP DP  RH WIND       PRES   REMARKS
ATLANTIC *     CLOUDY    27  23  86 NW3       30.15S                  
AUDUBON *      CLOUDY    25  19  80 CALM      30.15R                  
CLARINDA *     PTCLDY    25  23  93 CALM      30.17S                  
COUNCIL BLFS * CLOUDY    27  23  86 NW8       30.15S WCI  18          
CRESTON *      CLOUDY    28  25  86 NW13      30.14R WCI  18          
HARLAN  *        N/A    N/A N/A N/A MISG        N/A                   
LAMONI         CLOUDY    30  26  85 W5        30.11R WCI  25          
RED OAK *      CLOUDY    27  23  86 N8        30.15F WCI  18          
SHENANDOAH *   CLOUDY    28  25  86 VRB3      30.15S                  
$$
 
IAZ047>049-059>061-072>074-084-060600-
   CENTRAL IOWA
  
CITY           SKY/WX    TMP DP  RH WIND       PRES   REMARKS
AMES           CLOUDY    27  20  75 NW9       30.14R WCI  18          
ANKENY *       PTCLDY    28  21  74 NW10G16   30.15R WCI  19          
BOONE *        CLOUDY    25  21  86 NW12      30.13R WCI  14          
CHARITON *     CLOUDY    30  27  86 NW6       30.12R WCI  24          
DES MOINES     CLOUDY    30  21  69 NW13      30.15R WCI  20          
GRINNELL*      CLOUDY    30  24  78 NW13      30.12R WCI  20          
KNOXVILLE *    CLOUDY    30  28  93 NW9       30.12S WCI  22          
MARSHALLTOWN   CLOUDY    26  22  84 NW10      30.12R WCI  16          
NEWTON *       PTCLDY    30  23  74 NW9       30.13R WCI  22          
PELLA *        PTCLDY    32  24  72 NW8       30.14R WCI  25          
PERRY *        FAIR      26  22  86 CALM      30.14R                  
$$
 
IAZ004>006-015-016-023>025-035-036-060600-
   NORTH CENTRAL IOWA
  
CITY           SKY/WX    TMP DP  RH WIND       PRES   REMARKS
ALGONA *       CLOUDY    23  19  86 N16G24    30.13R WCI  10          
CLARION *      CLOUDY    25  21  86 N12       30.14R WCI  14          
ESTHERVILLE    CLOUDY    20  16  84 N18       30.15R WCI   5          
FORT DODGE *   CLOUDY    23  20  88 N8G16     30.15R WCI  14          
MASON CITY     CLOUDY    24  21  88 N22       30.12R WCI   9          
FOREST CITY *  CLOUDY    25  21  86 N13       30.12R WCI  13          
IOWA FALLS *   FAIR      25  22  87 NW10      30.13R WCI  15          
$$

IAZ007>011-017>019-026>030-037>042-050>054-066-060600-
   NORTHEAST IOWA
  
CITY           SKY/WX    TMP DP  RH WIND       PRES   REMARKS
CEDAR RAPIDS   FAIR      29  24  82 W8        30.10R WCI  21          
CHARLES CITY * FAIR      23  19  86 NW10      30.10R WCI  12          
CLINTON *      FAIR      30  27  88 SW10      30.09R WCI  21          
DECORAH *      FAIR      23  23 100 NW9G15    30.05R WCI  13          
DUBUQUE        FAIR      29  24  82 SW14      30.04R WCI  18          
MONTICELLO *   FAIR      30  25  80 W9        30.08R WCI  22          
WATERLOO       FAIR      26  21  81 NW8       30.10R WCI  18          
$$
 
IAZ064-065-067-068-078-060600-
   EAST CENTRAL IOWA
  
CITY           SKY/WX    TMP DP  RH WIND       PRES   REMARKS
DAVENPORT      FAIR      32  26  78 W8        30.11R WCI  25          
IOWA CITY      FAIR      31  25  78 W8        30.13R WCI  23          
MT. PLEASANT * MOCLDY    32  30  93 SW7       30.12S WCI  26          
MUSCATINE *    FAIR      36  27  69 SW10G18   30.12R WCI  28          
QUAD CITIES    FAIR      33  27  78 W9        30.10  WCI  25          
$$
 
IAZ062-063-075>077-085>089-095>099-060600-
   SOUTHEAST IOWA
  
CITY           SKY/WX    TMP DP  RH WIND       PRES   REMARKS
BURLINGTON     PTCLDY    34  27  75 SW8       30.12S WCI  27          
FAIRFIELD *    PTCLDY    32  25  74 W5        30.10S WCI  27          
FORT MADISON * PTCLDY    36  28  75 SW8       30.13S WCI  29          
KEOKUK *       CLOUDY    34  28  80 SW6       30.13S WCI  29          
OSKALOOSA *    FAIR      29  26  86 NW6       30.13R WCI  23          
OTTUMWA        CLEAR     30  24  78 NW8       30.13R WCI  22          
WASHINGTON *   MOCLDY    32  30  93 NW12      30.13R WCI  23          
$$

ABBREVIATIONS USED IN REMARKS
   TC - TEMPERATURES IN CELSIUS
  WCI - WIND CHILL INDEX
   HX - HEAT INDEX
  VSB - VISIBILITY  
$$